Location: Unspecified
(47.6579°N, 23.5637°E)
Time: 03:15:39
(UTC+02:00)

Envisat - Pass Details

Date: 09 December 2021
Orbit: 764 x 766 km, 98.2° (Epoch: 17 January)

Event Time Altitude Azimuth Distance (km) Brightness Sun altitude
Rises 04:25:26 0° 25° (NNE) 3,243 6.6 -35.4°
Reaches altitude 10° 04:28:14 10° 40° (NE) 2,311 5.9 -35.0°
Maximum altitude 04:32:13 23° 92° (E) 1,595 5.2 -34.3°
Drops below altitude 10° 04:36:11 10° 144° (SE) 2,296 5.8 -33.6°
Sets 04:38:56 0° 158° (SSE) 3,217 6.5 -33.2°
